Snowfall_Accumulation
0.0 0.0 0.0 0.0 0.0 0.0 0.0 0.0 0.1 0.2 0.0 0.0 0.0 0.0 0.0 0.0 0.0 0.0 0.0 0.0 0.0 0.0 0.0 0.0 0.0 0.0 0.0 0.0 0.0 0.0 0.0 0.0 0.0 0.0 0.0 0.0 0.0 0.0
0.0 0.0 0.0 0.0 0.0 0.0 0.0 0.0 0.0 0.2 0.2 0.0 0.0 0.0 0.0 0.0 0.0 0.0 0.0 0.0 0.0 0.0 0.0 0.0 0.0 0.0 0.0 0.0 0.0 0.0 0.0 0.0 0.0 0.0 0.0 0.0 0.0 0.0
0.0 0.0 0.0 0.0 0.0 0.0 0.0 0.0 0.0 0.2 0.4 0.1 0.0 0.1 0.0 0.0 0.0 0.0 0.0 0.0 0.0 0.1 0.1 0.1 0.1 0.1 0.1 0.1 0.0 0.0 0.0 0.0 0.0 0.0 0.0 0.0 0.0 0.0
0.0 0.0 0.0 0.0 0.0 0.0 0.0 0.0 0.1 0.1 0.5 0.9 0.6 0.5 0.4 0.2 0.2 0.2 0.1 0.1 0.1 0.1 0.1 0.2 0.2 0.2 0.2 0.2 0.2 0.1 0.1 0.1 0.0 0.0 0.0 0.0 0.0 0.0
0.0 0.0 0.1 0.1 0.1 0.1 0.1 0.1 0.3 0.4 0.9 1.4 0.7 0.3 0.3 0.2 0.2 0.1 0.1 0.1 0.0 0.0 0.1 0.1 0.2 0.3 0.4 0.4 0.3 0.3 0.2 0.1 0.1 0.1 0.1 0.0 0.0 0.0
0.1 0.1 0.1 0.1 0.3 0.5 0.7 0.7 1.4 1.2 1.1 1.5 1.5 1.1 0.8 0.5 0.5 0.6 0.5 0.3 0.2 0.1 0.0 0.1 0.1 0.3 0.3 0.2 0.3 0.3 0.3 0.4 0.4 0.4 0.3 0.2 0.2 0.1
0.2 0.3 0.4 0.4 0.3 0.5 0.9 1.3 1.3 1.7 2.3 2.8 2.6 1.8 1.0 0.7 0.6 0.7 0.8 0.5 0.3 0.2 0.2 0.1 0.2 0.2 0.1 0.1 0.1 0.0 0.2 0.4 0.5 0.6 0.6 0.5 0.3 0.3
0.7 0.7 0.9 0.8 0.5 0.5 0.6 0.9 1.7 2.9 3.6 4.0 3.6 2.7 1.4 0.9 0.8 1.1 1.6 2.2 1.6 0.3 0.4 0.3 0.1 0.1 0.1 0.1 0.1 0.2 0.5 0.7 0.9 0.9 0.8 0.8 0.5 0.4
1.1 1.1 1.0 0.9 0.8 0.6 0.6 1.1 1.6 2.1 2.7 3.1 2.9 1.8 1.4 1.1 2.0 3.0 3.0 3.3 2.3 0.6 0.6 0.7 0.2 0.2 0.1 0.1 0.2 0.3 0.4 0.6 0.8 0.8 0.9 0.8 0.7 0.5
0.8 0.7 0.7 0.5 0.5 0.9 1.5 2.0 1.5 1.2 1.1 1.0 1.2 1.1 1.2 1.4 2.5 4.0 3.8 2.7 1.1 0.5 0.4 1.4 0.6 0.4 0.2 0.1 0.1 0.1 0.2 0.4 0.7 0.8 0.9 0.9 0.9 0.7
0.8 0.7 0.6 0.6 0.8 2.0 2.8 2.9 1.6 0.6 0.4 0.6 1.0 1.0 1.0 1.0 1.1 2.6 3.9 5.1 3.7 0.9 0.6 1.3 0.8 0.7 0.3 0.1 0.0 0.2 0.4 0.5 0.6 0.8 0.9 0.9 1.0 0.8
0.8 0.6 0.7 0.8 1.6 2.8 3.1 3.0 2.0 0.9 1.1 0.9 0.6 0.3 0.3 0.2 0.5 2.1 6.0 10.4 8.1 4.2 0.6 1.7 2.0 2.8 3.9 0.7 0.7 0.6 0.5 0.5 0.9 0.8 0.8 0.9 0.9 1.2
1.2 0.7 0.4 1.2 2.3 2.8 2.4 1.4 1.6 2.3 1.9 1.0 0.5 0.4 0.4 0.4 0.5 0.9 2.9 9.2 12.5 8.1 1.9 5.2 7.1 4.7 7.1 4.0 1.2 0.6 0.7 1.3 1.6 1.3 0.8 0.9 1.1 1.8
1.7 0.9 0.8 1.8 2.0 1.5 0.9 1.0 1.8 1.9 1.3 1.4 1.4 1.3 1.4 1.2 1.2 1.3 1.5 2.8 5.8 7.3 4.4 7.9 12.8 9.4 11.8 8.9 4.0 1.7 1.4 2.1 3.6 3.5 2.3 1.6 1.3 1.2
1.5 1.6 1.8 1.5 1.1 0.7 0.6 1.1 1.3 1.8 2.6 3.6 3.6 2.8 2.0 2.1 1.9 2.5 2.6 3.0 3.9 5.2 5.9 7.0 10.4 11.4 12.8 12.3 8.2 5.8 6.0 3.6 3.5 5.6 5.3 3.6 2.5 1.6
1.8 1.7 1.4 0.9 0.9 1.0 1.2 1.5 1.7 2.3 3.9 5.1 4.6 3.6 3.2 3.7 4.0 5.4 6.7 7.1 7.8 6.8 6.0 5.6 6.9 10.0 11.2 8.4 9.1 8.5 8.4 10.5 7.7 7.3 6.0 4.7 3.0 2.3
2.8 1.7 1.3 1.6 1.5 1.8 1.9 1.8 2.1 2.6 3.4 4.2 4.8 5.0 4.7 5.4 6.4 7.5 9.2 10.2 10.7 9.0 7.6 5.6 4.7 5.3 6.9 8.0 8.6 7.4 8.1 10.3 7.8 6.8 5.5 5.9 4.0 2.1
2.4 2.6 2.5 2.6 2.7 2.5 2.6 2.7 3.1 3.3 4.1 5.6 6.1 6.6 7.5 8.1 8.9 9.2 10.7 12.0 11.5 9.3 7.6 5.9 5.1 5.1 4.5 4.4 5.7 8.2 9.4 10.5 8.5 4.7 5.0 7.5 6.0 3.1
2.1 3.1 3.2 3.3 3.3 3.2 3.6 4.0 4.3 4.3 5.7 7.5 8.3 8.9 9.8 10.1 10.8 11.6 11.7 11.5 10.3 8.3 7.0 6.0 7.0 10.9 12.3 8.5 5.1 6.7 11.5 12.0 8.2 6.6 5.6 6.2 7.0 3.8
2.1 2.8 3.3 3.5 3.6 4.0 4.3 5.3 5.8 6.1 7.0 8.3 9.2 9.8 11.3 12.6 13.0 12.4 11.8 11.3 10.4 8.4 6.2 4.9 6.1 10.7 16.6 14.9 11.5 8.7 6.7 10.9 12.4 10.8 6.4 3.8 3.3 2.3
2.5 2.4 2.5 3.1 4.0 4.4 5.0 5.8 6.9 8.1 9.4 11.0 11.4 11.8 12.6 14.4 14.7 12.4 11.2 9.8 9.3 8.5 7.3 5.3 4.7 6.7 10.5 13.3 12.8 10.3 10.0 6.4 7.3 11.8 11.8 10.8 9.1 7.0
3.0 3.2 3.0 3.1 3.8 4.6 5.4 6.3 7.9 8.9 10.0 11.1 11.7 12.0 12.4 13.8 13.6 11.3 9.5 9.0 8.3 7.8 7.1 5.5 4.7 5.9 9.0 12.6 11.9 9.3 9.2 8.0 5.2 3.8 5.1 9.0 16.2 17.6
4.0 4.0 4.0 4.0 4.7 5.0 6.1 7.0 8.4 9.5 10.3 11.9 12.3 11.9 11.5 11.2 9.6 8.9 8.5 8.5 8.7 8.0 7.5 7.0 6.0 6.1 7.3 8.8 9.8 9.2 8.0 7.2 6.9 7.1 8.1 3.8 4.0 4.4